#timestamp,LO_Frequency,Hit 
1501092015.2,286047026.9,N
1501092035.1,286047030.4,N
1501092036.0,286047030.4,N
1501092055.8,286047036.5,N
1501092075.6,286047038.7,N
1501092095.4,286047036.6,N
1501092115.3,286047039.6,N
1501092135.1,286047039.6,N
1501092155.8,286047039.4,N
1501092175.7,286047037.4,N
1501092195.5,286047039.2,N
1501092215.3,286047038.2,N
1501092235.2,286047035.7,N
1501092255.9,286047032.3,N
1501092275.7,286047032.6,N
1501092295.6,286047034.4,N
1501092315.4,286047032.4,N
1501092335.2,286047031.8,N
1501092355.0,286047034.5,N
1501092355.9,286047034.5,N
1501092375.8,286047030.7,N
1501092395.6,286047032.7,N
1501092415.4,286047031.0,N
1501092435.3,286047034.2,N
1501092455.1,286047037.1,N
1501092456.0,286047037.1,N
1501092475.8,286047038.8,N
1501092495.7,286047039.1,N
1501092515.5,286047038.2,N
1501092535.3,286047041.6,N
1501092555.2,286047046.0,Y
1501092575.9,286047024.0,N
1501092595.7,286047025.2,N
1501092615.6,286047026.6,N
1501092635.4,286047027.2,N
1501092655.2,286047022.6,N
1501092675.0,286047022.2,N
1501092676.0,286047022.2,N
1501092695.8,286047021.6,N
1501092715.6,286047020.7,N
1501092735.4,286047021.5,N
1501092755.3,286047019.4,N
1501092775.1,286047017.5,N
1501092795.8,286047018.8,N
1501092815.7,286047022.0,N
1501092835.5,286047019.0,N
1501092855.3,286047018.2,N
1501092875.2,286047017.8,N
1501092895.9,286047023.8,N
1501092915.7,286047031.2,N
1501092935.5,286047035.9,N
1501092955.4,286047030.1,N
1501092975.2,286047031.6,N
1501092995.0,286047031.8,N
1501092995.9,286047031.8,N
1501093015.8,286047036.4,N
1501093035.6,286047030.9,N
1501093055.4,286047030.4,N
1501093075.3,286047025.4,N
1501093095.1,286047019.2,N
1501093096.0,286047019.2,N
1501093115.8,286047014.3,N
1501093135.7,286047013.4,N
1501093155.5,286047012.8,N
1501093175.3,286047012.5,N
1501093195.2,286047012.8,N
1501093215.9,286047012.0,N
1501093235.7,286047011.7,N
1501093255.5,286047016.0,N
1501093275.4,286047020.2,N
1501093295.2,286047019.0,N
1501093315.0,286047021.9,N
1501093315.9,286047021.9,N
1501093335.8,286047024.8,N
1501093355.6,286047027.0,N
1501093375.4,286047029.7,N
1501093395.3,286047029.1,N
1501093415.1,286047030.2,N
1501093416.0,286047030.2,N
1501093435.8,286047031.7,N
1501093455.7,286047029.0,N
1501093475.5,286047028.8,N
1501093495.3,286047027.8,N
1501093515.1,286047025.9,N
1501093535.9,286047025.9,N
1501093555.7,286047026.4,N
1501093575.5,286047028.3,N
1501093595.4,286047028.4,N
1501093615.2,286047028.3,N
1501093635.0,286047030.0,N
1501093635.9,286047030.0,N
1501093655.8,286047027.7,N
1501093675.6,286047025.9,N
1501093695.4,286047025.8,N
1501093715.3,286047029.9,N
1501093735.1,286047029.8,N
1501093736.0,286047029.8,N
1501093755.8,286047029.7,N
1501093775.6,286047026.7,N
1501093795.5,286047025.3,N
1501093815.3,286047024.4,N
1501093835.1,286047023.3,N
1501093855.9,286047024.5,N
1501093875.7,286047026.5,N
1501093895.5,286047026.0,N
1501093915.4,286047027.9,N
1501093935.2,286047029.4,N
1501093955.0,286047030.7,N
1501093955.9,286047030.7,N
1501093975.8,286047028.8,N
1501093995.6,286047029.3,N
1501094015.4,286047031.5,N
1501094035.3,286047033.0,N
1501094055.1,286047033.4,Y
1501094056.0,286047033.4,Y
1501094075.8,286046984.7,N
1501094095.7,286046986.1,N
1501094115.5,286046981.6,N
1501094135.3,286046981.3,N
1501094155.2,286046983.6,N
1501094175.9,286046982.7,N
1501094195.7,286046983.5,N
1501094215.5,286046984.7,N
1501094235.4,286046982.2,N
1501094255.2,286046983.9,N
1501094275.0,286046985.4,N
1501094275.9,286046985.4,N
1501094295.8,286046986.5,N
1501094315.6,286046987.0,N
1501094335.4,286046989.9,N
1501094355.3,286046990.9,N
1501094375.1,286046989.7,N
1501094376.0,286046989.7,N
1501094395.8,286046982.6,N
1501094415.7,286046984.8,N
1501094435.5,286046981.5,N
1501094455.3,286046981.2,N
1501094475.1,286046982.5,N
1501094495.9,286046979.1,N
1501094515.7,286046977.5,N
1501094535.5,286046980.1,N
1501094555.4,286046980.2,N
1501094575.2,286046978.3,N
1501094595.0,286046983.0,N
1501094595.9,286046983.0,N
1501094615.8,286046983.2,N
1501094635.6,286046980.3,N
1501094655.4,286046979.5,N
1501094675.2,286046982.6,N
1501094695.1,286046986.1,N
1501094696.0,286046986.1,N
1501094715.8,286046985.5,N
1501094735.6,286046985.9,N
1501094755.5,286046983.3,N
1501094775.3,286046979.8,N
1501094795.1,286046985.7,N
1501094815.9,286046994.8,N
1501094835.7,286046998.3,N
1501094855.5,286047005.0,N
1501094875.4,286047008.5,N
1501094895.2,286047010.8,N
1501094915.0,286047008.5,N
1501094915.9,286047008.5,N
1501094935.8,286047010.4,N
1501094955.6,286047012.1,N
1501094975.4,286047012.0,N
1501094995.2,286047014.4,N
1501095015.1,286047031.3,N
1501095016.0,286047031.3,N
1501095035.8,286047035.6,N
1501095055.6,286047039.0,N
1501095075.5,286047042.4,N
1501095095.3,286047042.4,N
1501095115.1,286047040.9,N
1501095135.9,286047036.4,N
1501095155.7,286047029.4,N
1501095175.5,286047022.8,N
1501095195.4,286047026.6,N
1501095215.2,286047028.9,N
1501095235.0,286047028.4,N
1501095235.9,286047028.4,N
1501095255.7,286047024.2,N
1501095275.6,286047025.1,N
1501095295.4,286047027.8,N
1501095315.2,286047027.3,N
1501095335.1,286047026.0,N
1501095336.0,286047026.0,N
1501095355.8,286047022.5,N
1501095375.6,286047020.9,N
1501095395.5,286047016.3,N
1501095415.3,286047016.8,N
1501095435.1,286047013.0,N
1501095455.9,286047015.4,N
1501095475.7,286047015.9,N
1501095495.5,286047018.8,N
1501095515.3,286047015.8,N
1501095535.2,286047012.1,N
1501095555.0,286047010.1,N
1501095555.9,286047010.1,N
1501095575.7,286047005.6,N
1501095595.6,286047006.3,N
